Location: Baia Mare
(47.6567°N, 23.5850°E)
Time: 16:39:00
(UTC+03:00)

ISS - Pass Details

Date: 25 July 2018
Orbit: 402 x 408 km, 51.6° (Epoch: 21 July)

Event Time Altitude Azimuth Distance (km) Brightness Sun altitude
Rises 23:39:19 0° 282° (WNW) 2,323 0.6 -18.2°
Reaches altitude 10° 23:41:29 10° 291° (WNW) 1,464 -0.3 -18.4°
Maximum altitude 23:44:35 39° 2° (N) 626 -2.4 -18.6°
Enters shadow 23:47:14 13° 70° (ENE) 1,286 -1.4 -18.8°
